KB3KAV Weather Reports


Display with metric or nautical units.
time (UTC)temp
F
wind
direction
speed
MPH
gust
MPH
rain 1hr
in
rain 24hr
in
rain mn
in
humidity
%
barometer
mb
20260507074715 43 86 0.0 0.0 0.00 0.00 0.00 95 1040.4
20260507073710 43 86 0.0 0.0 0.00 0.00 0.00 95 1040.4
20260507072710 44 93 0.0 0.0 0.00 0.00 0.00 95 1040.4
20260507071711 45 100 0.0 1.0 0.00 0.00 0.00 95 1040.5
20260507070710 45 86 0.0 0.0 0.00 0.00 0.00 95 1040.6
20260507065708 45 91 0.0 0.0 0.00 0.00 0.00 95 1040.7
20260507064703 45 91 0.0 0.0 0.00 0.00 0.00 95 1040.9
20260507063659 46 91 0.0 0.0 0.00 0.00 0.00 95 1040.6
20260507062658 46 91 0.0 0.0 0.00 0.00 0.00 95 1040.6
20260507061654 46 91 0.0 0.0 0.00 0.00 0.00 95 1040.3
20260507060649 46 92 0.0 0.0 0.00 0.00 0.00 95 1040.4
20260507055647 46 87 0.0 0.0 0.00 0.00 0.00 95 1040.1
20260507054645 46 87 0.0 0.0 0.00 0.00 0.00 95 1040.4
20260507053640 46 91 0.0 0.0 0.00 0.00 0.00 95 1040.0
20260507052636 46 99 0.0 0.0 0.00 0.00 0.00 95 1040.2
20260507051636 46 99 0.0 0.0 0.00 0.00 0.00 95 1040.0
20260507050635 46 91 0.0 0.0 0.00 0.00 0.00 95 1040.2
20260507045634 46 88 0.0 0.0 0.00 0.00 0.00 95 1039.8
20260507044634 46 89 0.0 0.0 0.00 0.00 0.00 95 1040.0
20260507043633 46 88 0.0 0.0 0.00 0.00 0.00 95 1040.0
20260507042632 46 88 0.0 0.0 0.00 0.00 0.00 95 1039.8
20260507041630 47 105 1.0 1.0 0.00 0.00 0.00 95 1039.9
20260507040630 47 89 0.0 0.0 0.00 0.00 0.00 95 1040.1
20260507035628 46 86 0.0 0.0 0.00 0.48 0.48 95 1040.6
20260507034627 47 94 0.0 0.0 0.00 0.48 0.48 95 1040.5
20260507033623 47 96 0.0 0.0 0.00 0.48 0.48 95 1040.2
20260507032623 47 91 0.0 0.0 0.00 0.48 0.48 95 1039.9
20260507031621 48 87 0.0 0.0 0.00 0.48 0.48 95 1039.9
20260507030620 48 86 1.0 1.0 0.00 0.48 0.48 95 1039.8
20260507025615 48 89 0.0 0.0 0.00 0.48 0.48 95 1039.9
20260507024610 48 87 0.0 0.0 0.00 0.48 0.48 95 1039.8
20260507023608 48 99 0.0 0.0 0.00 0.48 0.48 95 1039.8
20260507022603 48 101 0.0 0.0 0.00 0.48 0.48 95 1040.4
20260507021600 48 86 0.0 0.0 0.00 0.48 0.48 95 1040.6
20260507020555 48 85 0.0 0.0 0.00 0.48 0.48 95 1040.7
20260507015555 48 96 0.0 0.0 0.00 0.48 0.48 95 1040.5
20260507014555 48 92 0.0 0.0 0.00 0.48 0.48 95 1040.9
20260507013553 48 92 0.0 0.0 0.00 0.48 0.48 95 1040.7
20260507012548 48 92 0.0 0.0 0.00 0.48 0.48 94 1040.7
20260507011547 48 92 0.0 0.0 0.00 0.48 0.48 94 1040.6
20260507010543 48 92 0.0 0.0 0.00 0.48 0.48 94 1040.4
20260507005538 49 92 0.0 0.0 0.00 0.48 0.48 94 1040.5
20260507004537 49 92 0.0 0.0 0.00 0.48 0.48 93 1040.1
20260507003536 49 88 0.0 0.0 0.00 0.48 0.48 93 1040.2
20260507002534 49 85 0.0 0.0 0.00 0.48 0.48 93 1039.9
20260507001532 49 90 0.0 0.0 0.00 0.48 0.48 92 1039.6
20260507000532 49 84 1.0 1.0 0.00 0.48 0.48 92 1039.3
20260506235531 50 91 0.0 1.0 0.00 0.48 0.48 92 1039.1
20260506234530 50 124 2.0 2.0 0.00 0.48 0.48 91 1038.8
20260506233530 50 90 1.0 1.0 0.00 0.48 0.48 90 1039.1
20260506232529 50 100 0.0 1.0 0.00 0.48 0.48 90 1038.9
20260506231528 50 144 3.0 3.0 0.00 0.48 0.48 91 1038.7
20260506230527 51 102 1.0 1.0 0.00 0.48 0.48 92 1038.5
20260506225527 51 100 0.0 0.0 0.00 0.48 0.48 90 1038.5
20260506224525 51 83 1.0 1.0 0.00 0.48 0.48 89 1038.1
20260506223523 51 113 1.0 2.0 0.00 0.48 0.48 90 1037.8
20260506222522 52 102 1.0 1.0 0.00 0.48 0.48 91 1037.9
20260506221521 52 294 4.0 5.0 0.00 0.48 0.48 91 1037.5
20260506220520 53 69 2.0 2.0 0.00 0.48 0.48 91 1037.3
20260506215519 54 121 1.0 1.0 0.00 0.48 0.48 91 1036.8
20260506214517 56 143 2.0 3.0 0.00 0.48 0.48 93 1036.4
20260506213513 57 17 3.0 3.0 0.00 0.48 0.48 94 1036.1
20260506212511 60 80 0.0 1.0 0.07 0.48 0.48 95 1035.6
20260506211509 60 86 1.0 1.0 0.00 0.47 0.47 95 1035.3
20260506210508 60 104 0.0 1.0 0.12 0.47 0.47 94 1035.2
20260506205508 61 91 0.0 0.0 0.00 0.45 0.45 94 1035.3
20260506204508 60 98 0.0 0.0 0.05 0.45 0.45 94 1035.1
20260506203502 60 86 0.0 0.0 0.00 0.44 0.44 93 1035.2
20260506202502 61 101 1.0 1.0 0.07 0.44 0.44 93 1034.9
20260506201502 61 86 1.0 1.0 0.00 0.43 0.43 92 1035.0
20260506200500 61 96 0.0 0.0 0.00 0.43 0.43 91 1035.0
20260506195500 61 124 2.0 2.0 0.00 0.43 0.43 92 1035.1
20260506194459 61 90 1.0 2.0 0.00 0.43 0.43 92 1035.0
20260506193459 60 72 1.0 2.0 0.00 0.43 0.43 93 1035.1
20260506192459 60 100 0.0 1.0 0.00 0.43 0.43 94 1035.4
20260506191458 60 115 2.0 2.0 0.00 0.43 0.43 95 1035.3
20260506190457 60 244 2.0 3.0 0.00 0.43 0.43 95 1035.4
20260506185457 60 126 2.0 2.0 0.00 0.43 0.43 95 1035.4
20260506184457 59 74 2.0 2.0 0.00 0.43 0.43 95 1035.4
20260506183455 59 75 1.0 1.0 0.00 0.43 0.43 95 1035.5
20260506182455 59 89 0.0 0.0 0.00 0.43 0.43 95 1035.6
20260506181451 59 90 0.0 0.0 0.00 0.43 0.43 95 1035.8
20260506180449 59 76 1.0 1.0 0.00 0.43 0.43 95 1035.8
20260506175449 59 98 0.0 0.0 0.00 0.43 0.43 95 1035.7
20260506174450 59 92 0.0 1.0 0.05 0.43 0.43 95 1035.9
20260506173449 59 99 0.0 0.0 0.00 0.42 0.42 95 1035.5
20260506172450 59 99 0.0 0.0 0.00 0.42 0.42 95 1035.6
20260506171449 59 87 0.0 0.0 0.00 0.42 0.42 95 1035.7
20260506170449 59 99 0.0 0.0 0.07 0.42 0.42 95 1035.7
20260506165446 59 99 0.0 0.0 0.00 0.41 0.41 95 1036.1
20260506164444 59 98 0.0 0.0 0.00 0.41 0.41 95 1035.7
20260506163443 59 96 1.0 1.0 0.05 0.41 0.41 95 1036.0
20260506162442 59 93 0.0 0.0 0.00 0.40 0.40 95 1035.6
20260506161437 58 82 0.0 1.0 0.12 0.40 0.40 95 1035.8
20260506160437 58 84 0.0 0.0 0.07 0.38 0.38 95 1035.8
20260506155433 59 102 1.0 1.0 0.12 0.37 0.37 95 1035.8
20260506153559 58 99 0.0 0.0 0.12 0.34 0.34 95 1035.9
20260506152559 58 85 1.0 1.0 0.17 0.32 0.32 95 1036.0
20260506151555 58 92 0.0 1.0 0.12 0.29 0.29 95 1036.1
20260506150554 58 101 0.0 0.0 0.12 0.27 0.27 95 1036.3
20260506145553 58 124 1.0 2.0 0.14 0.25 0.25 95 1036.2
20260506144554 58 61 1.0 2.0 0.12 0.23 0.23 95 1036.2
20260506143548 58 94 0.0 0.0 0.05 0.21 0.21 95 1036.1
20260506142544 58 83 0.0 0.0 0.12 0.20 0.20 95 1036.1
20260506141539 58 97 0.0 0.0 0.12 0.19 0.19 95 1036.2
20260506140534 58 97 0.0 0.0 0.12 0.17 0.17 95 1036.5
20260506135534 57 95 0.0 0.0 0.12 0.15 0.15 95 1036.3
20260506134533 57 98 0.0 0.0 0.05 0.13 0.13 95 1036.2
20260506133532 57 98 0.0 0.0 0.19 0.12 0.12 95 1036.4
20260506132532 57 97 0.0 0.0 0.17 0.10 0.10 95 1036.7
20260506131532 57 97 0.0 0.0 0.12 0.07 0.07 95 1036.7
20260506130531 56 97 0.0 0.0 0.12 0.05 0.05 94 1036.9
20260506125527 56 97 0.0 0.0 0.07 0.03 0.03 94 1036.9
20260506124522 56 94 0.0 0.0 0.05 0.02 0.02 93 1037.2
20260506123518 55 106 1.0 1.0 0.07 0.01 0.01 93 1037.1
20260506122517 56 91 0.0 0.0 0.00 0.00 0.00 92 1036.9
20260506121513 55 92 0.0 0.0 0.00 0.00 0.00 92 1036.5
20260506120513 55 92 0.0 0.0 0.00 0.00 0.00 92 1036.5
20260506115508 55 91 0.0 0.0 0.00 0.00 0.00 91 1036.3
20260506114503 55 91 0.0 0.0 0.00 0.00 0.00 91 1036.5
20260506113459 54 90 1.0 1.0 0.00 0.00 0.00 91 1036.6
20260506112459 54 91 0.0 0.0 0.00 0.00 0.00 91 1036.3
20260506111454 54 91 0.0 0.0 0.00 0.00 0.00 91 1036.6
20260506110455 54 90 0.0 0.0 0.00 0.00 0.00 91 1036.6
20260506105453 54 97 0.0 0.0 0.00 0.00 0.00 91 1035.9
20260506104449 53 95 0.0 0.0 0.00 0.00 0.00 91 1036.1
20260506103443 53 95 1.0 1.0 0.00 0.00 0.00 91 1036.1
20260506102438 53 95 1.0 1.0 0.00 0.00 0.00 91 1035.8
20260506101437 53 93 1.0 1.0 0.00 0.00 0.00 90 1035.4
20260506100433 53 85 1.0 1.0 0.00 0.00 0.00 90 1035.7
20260506095429 53 78 0.0 1.0 0.00 0.00 0.00 91 1035.9
20260506094430 53 92 0.0 0.0 0.00 0.00 0.00 90 1035.8
20260506093424 53 93 0.0 0.0 0.00 0.00 0.00 90 1036.0
20260506092420 53 79 1.0 1.0 0.00 0.00 0.00 90 1036.0
20260506091420 53 88 2.0 2.0 0.00 0.00 0.00 90 1035.9
20260506090415 53 86 0.0 0.0 0.00 0.00 0.00 90 1036.0
20260506085414 53 86 0.0 0.0 0.00 0.00 0.00 90 1036.0
20260506084413 53 85 1.0 1.0 0.00 0.00 0.00 90 1035.9
20260506083413 53 98 0.0 0.0 0.00 0.00 0.00 90 1036.0
20260506082413 53 90 0.0 0.0 0.00 0.00 0.00 90 1036.2
20260506081413 53 80 0.0 0.0 0.00 0.00 0.00 90 1036.2
20260506080412 53 92 0.0 0.0 0.00 0.00 0.00 90 1036.2